Change the Weather History Date:

Thursday, May 30, 2013

  Actual Average Record
Temperature  
Mean Temperature 46 °F -  
Max Temperature 49 °F 70 °F - ()
Min Temperature 44 °F 52 °F - ()
Degree Days  
Heating Degree Days 18    
Moisture  
Dew Point 45 °F    
Average Humidity 93    
Maximum Humidity 100    
Minimum Humidity 83    
Precipitation  
Precipitation 0.63 in 0.20 in - ()
Sea Level Pressure  
Sea Level Pressure 29.70 in    
Wind  
Wind Speed 5 mph ()    
Max Wind Speed 14 mph    
Max Gust Speed -    
Visibility 6.3 miles    
Events Rain    
T = Trace of Precipitation, MM = Missing Value Source: Averaged Metar Reports

Daily Weather History Graph

Daily Weather History Graph

Search for Another Location

Airport or City:

Trip Planner

Search our weather history database for the weather conditions in past years. The results will help you decide how hot, cold, wet, or windy it might be!

Date:

Astronomy

May. 30, 2013 Rise Set
Actual Time 5:14 AM CEST 8:56 PM CEST
Civil Twilight 4:35 AM CEST 9:36 PM CEST
Nautical Twilight 3:42 AM CEST 10:29 PM CEST
Astronomical Twilight 2:28 AM CEST 11:44 PM CEST
Moon 12:32 AM CEST (5/30) 11:20 AM CEST (5/30)
Length of Visible Light 17h 00m
Length of Day
15h 41m
Waning Gibbous, 65% of the Moon is Illuminated
May 30
Waning Gibbous
May 31
Last Quarter
Jun 8
New
Jun 16
First Quarter
Jun 23
Full

Hourly Weather History & Observations

Time (CEST) Temp. Windchill Dew Point Humidity Pressure Visibility Wind Dir Wind Speed Gust Speed Precip Events Conditions
12:20 AM 46.4 °F 44.3 °F 46.4 °F 100% 29.74 in 6.2 mi SSE 4.6 mph - N/A   Mostly Cloudy
12:50 AM 46.4 °F 44.3 °F 46.4 °F 100% 29.71 in 6.2 mi South 4.6 mph - N/A   Mostly Cloudy
1:20 AM 46.4 °F 44.3 °F 46.4 °F 100% 29.71 in 6.2 mi SSE 4.6 mph - N/A   Mostly Cloudy
1:50 AM 46.4 °F 43.5 °F 44.6 °F 93% 29.71 in 6.2 mi SSE 5.8 mph - N/A   Mostly Cloudy
2:00 AM 47 °F - 45 °F 91% 29.74 in 17 mi SSE 6.7 mph - -  
2:20 AM 46.4 °F 43.5 °F 44.6 °F 93% 29.71 in 6.2 mi SE 5.8 mph - N/A   Mostly Cloudy
2:50 AM 46.4 °F 44.3 °F 46.4 °F 100% 29.71 in 6.2 mi SE 4.6 mph - N/A Rain Light Rain
3:20 AM 46.4 °F - 44.6 °F 93% 29.71 in 6.2 mi Variable 2.3 mph - N/A Rain Light Rain
3:50 AM 46.4 °F 45.2 °F 46.4 °F 100% 29.71 in 6.2 mi SE 3.5 mph - N/A Rain Light Rain
4:20 AM 46.4 °F 45.2 °F 46.4 °F 100% 29.71 in 6.2 mi SSE 3.5 mph - N/A Rain Light Rain
4:50 AM 46.4 °F 45.2 °F 46.4 °F 100% 29.71 in 6.2 mi South 3.5 mph - N/A Rain Light Rain
5:00 AM 46 °F - 46 °F 99% 29.74 in 9 mi South 4.5 mph - - Rain Light Rain
5:20 AM 46.4 °F - 46.4 °F 100% 29.71 in 6.2 mi Variable 1.2 mph - N/A Rain Light Rain
5:50 AM 46.4 °F 45.2 °F 46.4 °F 100% 29.71 in 6.2 mi SSE 3.5 mph - N/A Rain Light Rain
6:20 AM 46.4 °F - 46.4 °F 100% 29.71 in 6.2 mi Variable 1.2 mph - N/A Rain Light Rain
6:50 AM 46.4 °F - 46.4 °F 100% 29.71 in 6.2 mi Variable 2.3 mph - N/A Rain Light Rain
7:20 AM 46.4 °F - 46.4 °F 100% 29.71 in 6.2 mi Variable 2.3 mph - N/A Rain Light Rain
7:50 AM 46.4 °F - 46.4 °F 100% 29.71 in 5.6 mi Variable 2.3 mph - N/A Rain Rain
8:00 AM 47 °F - 47 °F 98% 29.74 in 6 mi 2.2 mph - - Rain Rain
8:20 AM 46.4 °F - 46.4 °F 100% 29.71 in 6.2 mi Variable 2.3 mph - N/A Rain Light Rain
8:50 AM 46.4 °F - 46.4 °F 100% 29.71 in 6.2 mi Variable 1.2 mph - N/A Rain Light Rain
9:20 AM 48.2 °F - 46.4 °F 93% 29.71 in 6.2 mi Variable 1.2 mph - N/A Rain Light Rain
9:50 AM 48.2 °F - 46.4 °F 93% 29.71 in 6.2 mi SW 3.5 mph - N/A Rain Light Rain
10:20 AM 48.2 °F - 46.4 °F 93% 29.71 in 5.0 mi Variable 2.3 mph - N/A Rain Rain
10:50 AM 48.2 °F - 46.4 °F 93% 29.71 in 4.3 mi West 3.5 mph - N/A Rain Rain
11:00 AM 48 °F - 46 °F 90% 29.74 in 4 mi West 4.5 mph - - Rain Rain
11:20 AM 48.2 °F - 46.4 °F 93% 29.71 in 4.3 mi WSW 5.8 mph - N/A Rain Rain
11:50 AM 48.2 °F - 46.4 °F 93% 29.71 in 5.0 mi West 3.5 mph - N/A Rain Rain
12:20 PM 48.2 °F - 46.4 °F 93% 29.71 in 5.0 mi West 5.8 mph - N/A Rain Rain
12:50 PM 48.2 °F - 46.4 °F 93% 29.71 in 6.2 mi WNW 6.9 mph - N/A Rain Rain
1:20 PM 48.2 °F - 46.4 °F 93% 29.71 in 6.2 mi WSW 5.8 mph - N/A Rain Rain
1:50 PM 48.2 °F - 44.6 °F 87% 29.71 in 6.2 mi WSW 6.9 mph - N/A Rain Light Rain
2:00 PM 48 °F - 45 °F 85% 29.74 in 8 mi WSW 6.7 mph - - Rain Light Rain
2:20 PM 48.2 °F - 44.6 °F 87% 29.71 in 6.2 mi WSW 6.9 mph - N/A Rain Light Rain
2:50 PM 48.2 °F - 44.6 °F 87% 29.71 in 6.2 mi WSW 9.2 mph - N/A Rain Light Rain
3:20 PM 48.2 °F - 44.6 °F 87% 29.71 in 6.2 mi SW 9.2 mph - N/A Rain Light Rain
3:50 PM 48.2 °F - 44.6 °F 87% 29.71 in 6.2 mi SW 9.2 mph - N/A Rain Light Rain
4:20 PM 46.4 °F 41.5 °F 44.6 °F 93% 29.68 in 6.2 mi SW 10.4 mph - N/A Rain Rain
4:50 PM 46.4 °F 41.9 °F 42.8 °F 87% 29.68 in 6.2 mi SW 9.2 mph - N/A Rain Rain
5:00 PM 47 °F - 44 °F 83% 29.73 in 6 mi SW 8.9 mph - - Rain Rain
5:20 PM 46.4 °F 41.9 °F 44.6 °F 93% 29.68 in 6.2 mi SW 9.2 mph - N/A Rain Rain
5:50 PM 46.4 °F 41.9 °F 44.6 °F 93% 29.68 in 6.2 mi SSW 9.2 mph - N/A Rain Rain
6:20 PM 46.4 °F 41.9 °F 42.8 °F 87% 29.68 in 6.2 mi SW 9.2 mph - N/A Rain Rain
6:50 PM 46.4 °F 41.1 °F 42.8 °F 87% 29.68 in 6.2 mi SW 11.5 mph - N/A Rain Rain
7:20 PM 44.6 °F 38.1 °F 42.8 °F 93% 29.68 in 6.2 mi SW 13.8 mph - N/A Rain Rain
7:50 PM 44.6 °F 39.2 °F 42.8 °F 93% 29.68 in 6.2 mi SW 10.4 mph - N/A Rain Rain
8:00 PM 45 °F - 42 °F 87% 29.71 in 6 mi SW 11.2 mph - - Rain Rain
8:20 PM 44.6 °F 39.7 °F 42.8 °F 93% 29.68 in 6.2 mi SW 9.2 mph - N/A Rain Rain
8:50 PM 44.6 °F 39.2 °F 42.8 °F 93% 29.68 in 6.2 mi SW 10.4 mph - N/A Rain Rain
9:20 PM 44.6 °F 39.7 °F 42.8 °F 93% 29.68 in 6.2 mi WSW 9.2 mph - N/A Rain Rain
9:50 PM 44.6 °F 39.2 °F 42.8 °F 93% 29.68 in 6.2 mi SW 10.4 mph - N/A Rain Rain
10:20 PM 44.6 °F 40.2 °F 42.8 °F 93% 29.68 in 6.2 mi WSW 8.1 mph - N/A Rain Rain
10:50 PM 44.6 °F 39.7 °F 41.0 °F 87% 29.65 in 6.2 mi SW 9.2 mph - N/A Rain Rain
11:00 PM 44 °F - 42 °F 88% 29.70 in 6 mi SW 8.9 mph - - Rain Rain
11:20 PM 44.6 °F 40.2 °F 41.0 °F 87% 29.65 in 6.2 mi SW 8.1 mph - N/A Rain Rain
11:50 PM 44.6 °F 39.7 °F 41.0 °F 87% 29.65 in 6.2 mi SW 9.2 mph - N/A Rain Rain